NapervilleWeather.com

Find the Weather for any City, State  
or Zipcode, or Country:

Naperville, IL Weather
Local Radar

Local Radar

Graphs, Details
Graphs and Gauges
Detailed Weather
Detailed Reports
Ajax Version (old)
Davis Summary
Davis Current Weather Graphs
Davis 24 Hour Weather History
Cumulus

CW7164 Data

Weather Underground
www.awekas.at
Automatic Weather Map System
Latest Naperville, Illinois, weather
Weather For You
Maps
Temperature
Heat Index
Windchill
Humidity
Radar
Dew Point
Wind
Visibility
Visible Satellite
Satellite
Fronts
Snow Depth
Jet Stream
Flight Rules
Forecast Maps
Temperature Forecast
Maximum Temperature Forecast
Minimum Temperature Forecast
Dewpoint Forecast
Prevalent Weather
12Hr Probability of Precip.
Sky Cover
Health Maps
UV Forecast
Air Quality
Peak Air Quality Index
Weather Station
Davis Instruments Vantage Pro2
Current Conditions [Select Refresh to Update]

Updated: 7:36pm on 12/19/14

(location)
Currently:
30.6°F

Clear
Overcast

High: 32.7 °F< 
(12:53pm
Low: 26.6 °F 
(12:09am)
Wind: W 0 mph
Calm
Gust: 1 mph
Today's High Wind: 5 mph (4:10am)
Humidity: 75%
Pressure: 30.33 in  (Steady
Pressure Rate: -0.005 in/hr
Dew Point: 23.6°F
Wind Chill: 30.6 °F
Heat Index (feels like): 34.2 °F
Comfort Level: Cool
Temperature Rate:  -0.36°F/hr
 
5 Day Forecast
 
Fri Sat Sun Mon Tue
Clear Clear Clear Clear Clear
Mostly Cloudy Mostly Cloudy Cloudy Mostly Cloudy Cloudy
34 34 37 41 43
25 28 28 39 30

Records and Normals
 
Temperature Forecast Normal Record
High 34 0 0
(0)
Low 25 0 0
(0)
 
 
Weather Advisories
No Warnings
Full Advisory Text...
Weather Map

Web Cam

Almanac
 
Sunrise:  
7:15am
Moonrise: 
4:28am

Moon Phase:
5%

Sunset: 
4:23pm
Moonset:  
2:48pm
 Star Chart...
Rainfall Totals
Hourly Rain 0.00 in
Daily Rain: 0.00 in
Monthly Rain: 0.44 in
Yearly Rain: 34.33 in
Normal Rain, month to date: 0.00 in
Normal Rain, year to date: 0.00 in
Local Weather Exchange Network
Station ID City 
(Click for Map Location)
Neighborhood 
(Click for History)
Last Update (Date & Time) Temperature
 ()
Dew
Point ()
Humidity 
(%)
Wind 
(mph)
from the Wind Gust 
(mph) 
Pressure(in) Hourly
Rain(in)
KILNAPER15 Naperville Indian Hill Near Jefferson JHS 12/19 19:29:55 30.8 25.0 79 2 NNW 3 30.30 0.00
KILNAPER21 Naperville Saybrook 12/19 19:00:16 30.3 25.0 81 0 North 3 30.34 0.00
KILNAPER28 Naperville Pawnee Lane 12/19 19:26:42 34.5 25.0 67 0 North 0 30.34 0.00
KILNAPER25 Naperville brushhill-w 12/19 19:16:38 31.2 25.0 79 0 North 0 30.30 0.00
KILNAPER24 Naperville Brush Hill 12/19 19:20:18 30.7 26.0 81 0 ENE 2 30.25 0.00
KILNAPER19 Naperville Brookdale Lakes 12/19 19:29:57 30.1 25.0 82 0 East 0 30.24 0.00
KILNAPER7 Naperville NapervilleWeather.com Near Ogden and Naper Blvd 12/19 19:29:54 30.6 24.0 75 0 West 1 30.33 0.00
KILWARRE2 Warrenville Warrenville Neighborhood Weather 12/19 19:29:48 30.4 26.0 82 0 North 2 30.30 0.00
KILNAPER23 Naperville Naper Blvd at BNSF RR 12/19 19:29:51 30.0 25.0 81 0 ENE 1 30.32 0.00
KILLISLE9 Lisle Park Meadow Drive 12/19 19:27:03 33.8 25.0 71 0 North 0 30.30 0.00
KILNAPER9 Naperville 75th St. / Modaff Area 12/19 19:29:51 30.7 26.0 81 0 NE 0 30.30 0.00
KILLISLE7 Lisle Beau Monde Drive 12/19 19:26:08 30.9 25.0 79 0 North 0 30.33 0.00
KILWHEAT8 Wheaton Wheaton Sanitary District 12/19 19:25:03 31.8 27.0 82 0 NNW 0 30.31 0.00
KILLOMBA6 Wheaton Danada West 12/19 19:29:14 30.3 24.0 76 0 NW 0 30.28 0.00
KILAUROR27 Aurora Stonehaven 12/19 19:28:48 29.7 24.0 79 2 NE 0 30.12 0.00
KILNAPER16 Naperville SE Naperville / NE Clow Arpt 12/19 19:29:51 31.2 26.0 79 2 NE 4 30.32 0.00
KILNAPER22 Naperville Willow Ridge 12/19 19:27:25 30.4 26.0 85 0 ESE 0 30.09 0.00
KILWHEAT5 Wheaton N9ABF - West Wheaton 12/19 19:17:56 30.6 24.0 77 1 WNW 0 30.23 0.00
KILGLENE9 Glen Ellyn Valley View 12/19 19:18:56 30.6 25.0 80 0 NNE 0 30.15 0.00
KILNAPER26 Naperville Landore Drive 12/19 19:26:32 32.4 26.0 77 0 North 0 30.29 0.00
KILWINFI2 Winfield Winfield Heights (SarahNet) 12/19 19:18:20 30.0 25.0 80 0 North 0 30.31 0.00
KILWOODR4 Woodridge Woodridge Neighborhood Weather 12/19 19:28:01 32.0 25.0 74 0 NW 4 30.30 0.00
KILWINFI3 Winfield Fredericksburg Farm 12/19 19:29:57 29.3 24.0 81 0 WSW 2 30.23 0.00
KILWHEAT10 Wheaton Wheaton College 12/19 19:25:16 29.8 24.0 78 2 North 4 30.30 0.00
KILWOODR2 Woodridge Woodridge 12/19 19:29:56 31.5 25.0 78 2 NE 2 30.18 0.00
KILWOODR1 Woodridge 75th Street/ Janes Ave 12/19 19:29:53 32.0 27.0 81 0 SE 1 29.48 0.00
KILBOLIN15 Bolingbrook Winding Meadows 12/19 19:29:54 31.3 17.0 54 1 NE 4 30.25 0.00
KILBOLIN20 Bolingbrook Bolingbrook - Royce Road 12/19 19:29:54 32.4 24.0 73 0 NNW 2 29.59 0.00
KILDOWNE3 Downers Grove Maple Woods West 12/19 19:29:55 33.5 30.0 85 0 West 0 30.32 0.00
KILBOLIN12 Bolingbrook UnderTheThunder HQ 12/19 19:29:48 31.8 26.0 78 1 North 1 30.31 0.00
KILBOLIN13 Bolingbrook UnderTheThunder.org Van 12/19 19:06:48 30.4 25.0 81 0 ENE 0 30.26 0.00
KILGLENE10 Glen Ellyn Hillside Avenue 12/19 19:26:19 30.4 26.0 83 0 North 0 29.52 0.00
KILAUROR22 Aurora Lakewood Valley 12/19 19:28:03 29.1 26.0 90 0 West 0 30.05 0.00
KILWOODR6 Woodridge Kelly Court 12/19 19:26:51 34.2 27.0 75 0 North 0 30.28 0.00
KDPA Chicago DuPage Official Station 12/19 18:52:00 29.0 23.0 78 6 North --- 30.30 ---
KLOT Romeoville Official Station 12/19 19:15:00 31.0 25.0 77 4 SSE --- 30.28 ---
KARR Aurora Official Station 12/19 19:15:00 28.0 23.0 81 5 NNE --- 30.28 ---
KJOT Joliet Official Station 12/19 19:15:00 31.0 24.0 76 0 North --- 30.29 ---
Full Advisory Text
No Warnings

Ambient Weather and Weather Underground
 Never base important decisions on this or any weather information obtained from the Internet
Updated Automatically by Ambient Weather's Virtual Weather Station  V14.01